Location: Unspecified
(0.0000°N, 0.0000°E)
Time: 18:03:50
(UTC+00:00)

Vanguard 2 Rocket - Pass Details

Date: 27 January 2020
Orbit: 554 x 3327 km, 32.9° (Epoch: 20 February)

Event Time Altitude Azimuth Distance (km) Brightness Sun altitude
Rises 21:42:04 0° 223° (SW) 6,180 11.8 -48.7°
Reaches altitude 10° 21:47:34 10° 213° (SSW) 4,662 10.9 -49.9°
Enters shadow 21:54:11 25° 186° (S) 2,963 9.6 -51.3°
Maximum altitude 21:57:15 29° 159° (SSE) 2,465 - -52.0°
Drops below altitude 10° 22:03:25 10° 101° (E) 2,902 - -53.3°
Sets 22:05:58 0° 88° (E) 3,566 - -53.8°
